User: anonymous   Login
Location: Stoke Bliss
(52.2667°N, 2.5167°W)
Time: 17:05:01
(UTC+00:00)
Language:

ERS-1 Rocket - Orbit

View from above orbital plane
View from above orbital plane
View from above satellite
View from above satellite

Ground track
Ground track

The orbit data is extracted from the following two-line orbital elements,

1 21610U 91050F   21129.22091083  .00000014  00000-0  17871-4 0  9998
2 21610  98.4247 200.5366 0003386  24.6531  40.4280 14.40945740564617
Epoch (UTC): 09 May 2021 05:18:06
Eccentricity: 0.0003386
inclination: 98.4247°
perigee height: 753 km
apogee height: 758 km
right ascension of ascending node: 200.5366°
argument of perigee: 24.6531°
revolutions per day: 14.40945740
mean anomaly at epoch: 40.4280°
orbit number at epoch: 56461

The dashed part of the orbit path shows where the satellite is in the earth's shadow,  

DLR